Location: Elma
(49.8670°N, 95.9170°W)
Time: 12:16:59
(UTC-05:00)

ISS - Pass Details

Date: 27 March 2019
Orbit: 408 x 410 km, 51.6° (Epoch: 20 April)

Event Time Altitude Azimuth Distance (km) Brightness Sun altitude
Rises 20:17:38 0° 247° (WSW) 2,333 1.1 -5.6°
Reaches altitude 10° 20:19:43 10° 246° (WSW) 1,473 0.0 -6.0°
Maximum altitude 20:23:01 79° 161° (SSE) 422 -3.8 -6.5°
Drops below altitude 10° 20:26:20 10° 74° (ENE) 1,476 -1.5 -7.0°
Enters shadow 20:26:56 - 74° (ENE) 1,727 -1.2 -7.1°
